Flag for Russia Weather past 2 weeks in Yekaterinburg, Russia

25 °F


Feels Like: 15 °F
Forecast: 7 / 20 °F
Wind: 10 mph from Southwest

Location: Ekaterinburg

Current Time: Nov 25, 2015 at 8:07:16 AM

Latest Report: Nov 25, 2015 at 7:30 AM

Visibility: N/A

Pressure: 30.18 "Hg

Humidity: 86%

Dew point: 21 °F

Location of YekaterinburgLocation

Historic Weather in Yekaterinburg — Graph


Yekaterinburg temperature yesterday

Maximum temperature yesterday: 39 °F (at 12:00 AM)
Minimum temperature yesterday: 28 °F (at 10:30 PM)
Average temperature yesterday: 35 °F

Past Weeks' High & Low Weather Summary

High39 °F (Nov 23, 2:00 PM)100% (Nov 23, 6:30 AM)30.51 "Hg (Nov 23, 6:30 AM)
Low-17 °F (Nov 20, 6:30 AM)68% (Nov 10, 2:30 PM)29.74 "Hg (Nov 23, 1:30 PM)
Average11 °F81%30.18 "Hg
* Reported Nov 10 7:00 AM — Nov 25 7:00 AM, Yekaterinburg, Weather by CustomWeather, © 2015

Note: Actual official high and low records may vary slightly from our data, if they occured in-between our weather recording intervals... More about our weather records


Yekaterinburg weather history for previous 24 hours

Time TempWeatherWind HumidityBarometerVisibility
7:00 AM
Wed, Nov 25
25 °FOvercast.8 mph86%30.18 "HgN/A
6:30 AM25 °FOvercast.8 mph86%30.15 "HgN/A
6:00 AM25 °FMostly cloudy.8 mph86%30.15 "HgN/A
5:30 AM25 °FPartly cloudy.10 mph86%30.15 "HgN/A
4:30 AM25 °FSnow flurries. Mostly cloudy.13 mph80%30.12 "HgN/A
4:00 AM25 °FSnow flurries. Mostly cloudy.13 mph80%30.12 "HgN/A
3:30 AM27 °FSnow flurries. Mostly cloudy.10 mph80%30.12 "HgN/A
3:00 AM27 °FSnow flurries. Mostly cloudy.13 mph80%30.09 "HgN/A
2:30 AM25 °FSnow flurries. Passing clouds.8 mph86%30.09 "HgN/A
2:00 AM27 °FSnow flurries. Passing clouds.10 mph80%30.09 "Hg5 mi
1:30 AM27 °FLight snow. Mostly cloudy.10 mph80%30.09 "HgN/A
1:00 AM27 °FPassing clouds.13 mph74%30.09 "HgN/A
12:30 AM27 °FSnow flurries. Mostly cloudy.17 mph80%30.07 "HgN/A
12:00 AM28 °FSnow flurries. Overcast.13 mph74%30.07 "HgN/A
11:30 PM
Tue, Nov 24
28 °FSnow flurries. Overcast.15 mph80%30.07 "HgN/A
11:00 PM28 °FLight snow. Overcast.17 mph80%30.04 "HgN/A
10:30 PM28 °FOvercast.15 mph86%30.04 "HgN/A
10:00 PM30 °FOvercast.15 mph80%30.04 "HgN/A
9:30 PM30 °FOvercast.17 mph80%30.01 "HgN/A
9:00 PM30 °FOvercast.15 mph86%30.01 "HgN/A
8:30 PM30 °FOvercast.8 mph86%30.01 "HgN/A
8:00 PM32 °FOvercast.6 mph80%30.01 "HgN/A
7:30 PM32 °FOvercast.8 mph80%30.01 "HgN/A
7:00 PM32 °FOvercast.10 mph80%30.01 "HgN/A
6:30 PM32 °FOvercast.10 mph87%29.98 "HgN/A
6:00 PM32 °FOvercast.8 mph87%29.98 "HgN/A
5:00 PM32 °FSnow flurries. Mostly cloudy.8 mph93%29.98 "Hg4 mi
4:30 PM32 °FOvercast.8 mph93%29.95 "HgN/A
4:00 PM34 °FOvercast.8 mph87%29.95 "HgN/A
3:30 PM34 °FLow clouds.8 mph93%29.95 "HgN/A
3:00 PM34 °FOvercast.6 mph93%29.95 "HgN/A
2:30 PM36 °FOvercast.8 mph87%29.92 "HgN/A
2:00 PM36 °FOvercast.8 mph87%29.92 "HgN/A
1:30 PM36 °FOvercast.3 mph93%29.92 "HgN/A
1:00 PM36 °FOvercast.6 mph93%29.92 "HgN/A
12:30 PM36 °FLow clouds.8 mph93%29.92 "HgN/A
12:00 PM36 °FOvercast.6 mph100%29.92 "HgN/A
11:30 AM36 °FOvercast.6 mph100%29.92 "HgN/A
11:00 AM36 °FMostly cloudy.3 mph100%29.92 "HgN/A
10:30 AM36 °FMostly cloudy.1 mph100%29.92 "HgN/A
10:00 AM36 °FMostly cloudy.1 mph100%29.89 "HgN/A
9:30 AM36 °FMostly cloudy.3 mph100%29.89 "HgN/A
9:00 AM36 °FMostly cloudy.3 mph93%29.89 "HgN/A
8:30 AM36 °FSprinkles. Overcast.3 mph100%29.89 "HgN/A
8:00 AM36 °FSprinkles. Overcast.6 mph100%29.89 "HgN/A
Weather by CustomWeather, © 2015

See weather overviewHow to use our weather pages